Regional Weather Roundup
Issued by NWS

Home | Current Version | Previous Version | Graphics & Text | Print | Product List | Glossary On
Versions: 1 2 3 4 5 6 7 8 9 10 11 12 13 14 15 16 17 18 19 20 21 22 23 24 25 26 27 28 29 30 31 32 33 34 35 36 37 38 39 40 41 42 43 44 45 46 47 48 49 50
000
ASUS43 KBIS 060510
RWRND

NORTH DAKOTA REGIONAL WEATHER ROUNDUP
NATIONAL WEATHER SERVICE BISMARCK ND
1200 AM CDT WED MAY 06 2015

NOTE: "FAIR" INDICATES FEW OR NO CLOUDS BELOW 12,000 FEET WITH NO
SIGNIFICANT WEATHER AND/OR OBSTRUCTIONS TO VISIBILITY.


NDZ001>003-009>011-017-060600-
NORTHWEST NORTH DAKOTA

CITY           SKY/WX    TMP DP  RH WIND       PRES   REMARKS
WILLISTON      CLEAR     63  50  62 SE6       29.78S
MINOT          CLEAR     57  39  51 SE6       29.83S
$$

NDZ018>021-031>035-040>046-060600-
SOUTHWEST NORTH DAKOTA

CITY           SKY/WX    TMP DP  RH WIND       PRES   REMARKS
BISMARCK       MOCLDY    60  52  74 SE12      29.85F
DICKINSON      MOCLDY    53  49  86 E8        29.78F
GARRISON         N/A     56  45  66 SE7       29.82F
HETTINGER ARPT CLOUDY    58  51  78 SE14      29.82F
$$

NDZ004>008-012>016-024-026-027-054-060600-
NORTHEAST NORTH DAKOTA

CITY           SKY/WX    TMP DP  RH WIND       PRES   REMARKS
GRAND FORKS    CLEAR     65  53  65 S14       29.97R
GRND FRKS AFB  CLEAR     63  52  67 S12       29.96S
DEVILS LAKE    CLEAR     61  48  63 SE12      29.91S
$$

NDZ022-023-025-028>030-036>039-047>053-060600-
SOUTHEAST NORTH DAKOTA

CITY           SKY/WX    TMP DP  RH WIND       PRES   REMARKS
FARGO          CLOUDY    65  53  65 S14G24    29.99S
JAMESTOWN      CLOUDY    63  54  72 SE17      29.92S
$$




USA.gov is the U.S. government's official web portal to all federal, state and local government web resources and services.